Meriden, CT

4:13 PM EDT on June 26, 2017 (GMT -0400)
Meriden Markham Municipal

Weather History for KMMK - November, 2013

Change the Weather History Date:

Tuesday, November 19, 2013

  Actual Average (KOXC) Record (KOXC)
Temperature  
Mean Temperature 40 °F -  
Max Temperature 48 °F 46 °F 62 °F (2015)
Min Temperature 32 °F 31 °F 17 °F (1997)
Degree Days  
Heating Degree Days 24    
Moisture  
Dew Point 21 °F    
Average Humidity 46    
Maximum Humidity 56    
Minimum Humidity 37    
Precipitation  
Precipitation 0.00 in - - ()
Sea Level Pressure  
Sea Level Pressure 30.04 in    
Wind  
Wind Speed 11 mph (NNW)    
Max Wind Speed 25 mph    
Max Gust Speed 33 mph    
Visibility 10 miles    
Events      
Averages and records for this station are not official NWS values.
T = Trace of Precipitation, MM = Missing Value Source: NWS Daily Summary

Daily Weather History Graph

Daily Weather History Graph

Search for Another Location

Airport or City:

Trip Planner

Search our weather history database for the weather conditions in past years. The results will help you decide how hot, cold, wet, or windy it might be!

Date:

Astronomy

Nov. 19, 2013 Rise Set
Actual Time 6:45 AM EST 4:28 PM EST
Civil Twilight 6:14 AM EST 4:58 PM EST
Nautical Twilight 5:41 AM EST 5:31 PM EST
Astronomical Twilight 5:08 AM EST 6:04 PM EST
Moon 6:16 PM EST (11/19) 8:22 AM EST (11/19)
Length of Visible Light 10h 43m
Length of Day
9h 43m
Waning Gibbous, 96% of the Moon is Illuminated
Nov 19
Waning Gibbous
Nov 25
Last Quarter
Dec 2
New
Dec 9
First Quarter
Dec 17
Full

Hourly Weather History & Observations

Time (EST) Temp. Windchill Dew Point Humidity Pressure Visibility Wind Dir Wind Speed Gust Speed Precip Events Conditions
12:53 AM 48.0 °F - 24.1 °F 39% 29.74 in 10.0 mi WNW 8.1 mph - N/A   Clear
1:53 AM 46.9 °F - 26.1 °F 44% 29.77 in 10.0 mi NW 12.7 mph 20.7 mph N/A   Partly Cloudy
2:53 AM 46.0 °F 40.6 °F 26.1 °F 46% 29.79 in 10.0 mi NW 11.5 mph 21.9 mph N/A   Overcast
3:53 AM 43.0 °F 37.2 °F 21.9 °F 43% 29.83 in 10.0 mi NW 10.4 mph - N/A   Scattered Clouds
4:53 AM 42.1 °F 37.7 °F 21.0 °F 43% 29.85 in 10.0 mi Variable 6.9 mph - N/A   Clear
5:53 AM 39.9 °F 35.8 °F 21.0 °F 47% 29.88 in 10.0 mi WNW 5.8 mph - N/A   Clear
6:53 AM 39.9 °F 37.8 °F 19.9 °F 45% 29.91 in 10.0 mi NW 3.5 mph - N/A   Mostly Cloudy
7:53 AM 42.1 °F 35.2 °F 23.0 °F 47% 29.94 in 10.0 mi NNW 12.7 mph 26.5 mph N/A   Mostly Cloudy
8:53 AM 42.1 °F 34.9 °F 25.0 °F 51% 29.96 in 10.0 mi NNW 13.8 mph 23.0 mph N/A   Scattered Clouds
9:53 AM 44.1 °F 34.8 °F 23.0 °F 43% 29.99 in 10.0 mi NW 25.3 mph 33.4 mph N/A   Partly Cloudy
10:53 AM 45.0 °F 38.5 °F 23.0 °F 42% 30.00 in 10.0 mi NNW 13.8 mph 25.3 mph N/A   Scattered Clouds
11:53 AM 46.0 °F 39.6 °F 21.9 °F 39% 30.01 in 10.0 mi NNW 15.0 mph 29.9 mph N/A   Clear
12:53 PM 45.0 °F 36.9 °F 21.0 °F 39% 30.03 in 10.0 mi NW 20.7 mph 29.9 mph N/A   Clear
1:53 PM 45.0 °F 37.4 °F 19.9 °F 37% 30.05 in 10.0 mi NNW 18.4 mph 29.9 mph N/A   Partly Cloudy
2:53 PM 45.0 °F 38.5 °F 19.9 °F 37% 30.08 in 10.0 mi NW 13.8 mph - N/A   Partly Cloudy
3:53 PM 42.1 °F 34.9 °F 21.0 °F 43% 30.12 in 10.0 mi NNW 13.8 mph - N/A   Partly Cloudy
4:53 PM 39.9 °F 32.5 °F 19.9 °F 45% 30.15 in 10.0 mi NNW 12.7 mph - N/A   Clear
5:53 PM 39.0 °F 33.4 °F 21.0 °F 49% 30.19 in 10.0 mi North 8.1 mph - N/A   Clear
6:53 PM 36.0 °F 29.6 °F 21.0 °F 55% 30.23 in 10.0 mi North 8.1 mph - N/A   Clear
7:53 PM 35.1 °F 27.4 °F 19.0 °F 52% 30.26 in 10.0 mi North 10.4 mph - N/A   Clear
8:53 PM 34.0 °F 25.5 °F 19.0 °F 54% 30.29 in 10.0 mi NNW 11.5 mph - N/A   Clear
9:53 PM 33.1 °F 24.9 °F 19.0 °F 56% 30.29 in 10.0 mi NNW 10.4 mph - N/A   Clear
10:53 PM 33.1 °F 25.5 °F 18.0 °F 54% 30.31 in 10.0 mi NNW 9.2 mph - N/A   Clear
11:53 PM 32.0 °F 24.8 °F 18.0 °F 56% 30.34 in 10.0 mi NNW 8.1 mph - N/A   Clear